Location: Northcutt
(34.7304°N, 84.4305°W)
Time: 04:11:11
(UTC+00:00)

Vanguard 2 - Pass Details

Date: 09 October 2022
Orbit: 553 x 2933 km, 32.9° (Epoch: 04 December)

Event Time Altitude Azimuth Distance (km) Brightness Sun altitude
Rises 18:31:07 0° 266° (W) 4,232 11.6 45.9°
Reaches altitude 10° 18:33:31 10° 265° (W) 3,513 11.3 45.7°
Maximum altitude 18:43:04 83° 180° (S) 2,019 10.6 44.9°
Drops below altitude 10° 18:58:47 10° 95° (E) 5,483 11.8 43.2°
Sets 19:03:32 0° 95° (E) 6,669 12.1 42.7°
